[[{"header":{"parameterUnit":"m.s-1","parameterCategory":1,"la1":30.2991,"la2":30.254,"lo1":-89.0895,"lo2":-89.0444,"dy":0.0017,"dx":0.0017,"nx":28,"ny":28,"refTime":"2024-03-17T09:00:00:Z","depth":0,"parameterNumber":2,"parameterNumberName":"U-component_of_WINDS"},"data":[0,0,0,0,0,0,0,0,0,0,0,0,0,0,0,0,0,0,0,0,0,0,0,0,0,0,0,0,0,0,0,0,0,0,0,0,0,0,0,0,0,0,0,0,0,0,0,0,0,0,0,0,0,0,0,0,0,0,2.5073,2.5073,0,2.5136,2.5136,2.5137,2.5131,2.513,2.5129,2.5128,2.5192,2.5195,2.5198,0,0,0,0,0,0,0,0,0,0,0,0,0,2.4948,2.495,2.5072,2.5073,2.5074,2.5136,2.5136,2.5137,2.5131,2.513,2.5129,2.5128,2.5192,2.5195,2.5198,0,0,0,0,0,0,0,0,0,0,0,0,0,2.5005,2.4951,2.5072,2.5078,2.508,2.5135,2.5136,2.5138,2.5131,2.513,2.5128,2.5127,2.5191,2.5194,2.5198,2.5252,0,0,2.521,2.5212,0,0,0,0,0,0,0,0,2.5002,2.501,2.5077,2.5078,2.5079,2.5124,2.5116,2.5176,2.5132,2.5112,2.5128,2.5126,2.5171,2.5176,2.5191,2.5255,2.5258,2.5211,2.5213,2.5215,2.5216,0,0,0,0,0,0,0,2.4998,2.5007,2.5097,2.5078,2.5079,2.5078,2.5085,2.5127,2.5149,2.5113,2.5113,2.5121,2.5171,2.5188,2.5193,2.5259,2.5211,2.5214,2.5217,2.5218,2.5372,2.5374,0,0,0,0,0,0,2.4993,2.5004,2.5095,2.5099,2.5036,2.5082,2.5089,2.5111,2.5148,2.5152,2.5122,2.512,2.5182,2.5188,2.5195,2.5261,2.5215,2.5218,2.5221,2.537,2.5372,2.5374,0,0,0,0,0,0,2.499,2.5001,2.5093,2.5052,2.5063,2.5085,2.511,2.5113,2.5129,2.5155,2.5158,2.5134,2.5181,2.519,2.5238,2.5264,2.522,2.5224,2.5368,2.5371,2.5373,2.5394,0,0,0,0,0,0,2.4986,2.5,2.502,2.5052,2.5066,2.5135,2.5112,2.5115,2.5136,2.5135,2.5168,2.5172,2.518,2.5233,2.5242,2.5268,2.5227,2.5366,2.5369,2.5372,2.5391,2.5397,2.5402,0,0,0,0,0,2.4982,2.5023,2.5021,2.5032,2.5091,2.5136,2.5144,2.5153,2.5138,2.5159,2.5176,2.517,2.526,2.5238,2.5249,2.5276,2.5365,2.5368,2.5372,2.5389,2.5396,2.5402,0,0,0,0,0,0,2.4993,2.5027,2.5025,2.5078,2.5105,2.5135,2.5161,2.516,2.5191,2.5188,2.5198,2.5206,2.5255,2.5271,2.5246,2.5331,2.531,2.5316,2.5319,2.5326,2.5331,2.5326,2.523,0,0,0,0,0,2.5002,2.5035,2.5063,2.5107,2.5121,2.5139,2.5159,2.5164,2.5191,2.5202,2.5222,2.5249,2.5284,2.5306,2.5338,2.5394,2.5401,2.5418,2.5424,2.5428,2.5433,2.5465,2.5473,2.5387,2.5387,2.5387,0,0,2.5019,2.5042,2.5063,2.511,2.5131,2.5166,2.5148,2.5185,2.5212,2.5208,2.5255,2.5271,2.5302,2.5355,2.5379,2.5369,2.5459,2.5433,2.5436,2.5439,2.547,2.5478,2.5485,2.539,2.5389,2.5389,0,0,2.507,2.5091,2.513,2.5152,2.5184,2.5196,2.5206,2.5237,2.5248,2.5296,2.5294,2.5326,2.5384,2.5407,2.5426,2.5487,2.5484,2.5498,2.5526,2.5556,2.5563,2.5569,2.5592,2.56,2.5503,2.5503,2.5503,0,2.5088,2.514,2.515,2.5188,2.5209,2.5209,2.5249,2.527,2.5311,2.5326,2.5314,2.5389,2.5409,2.5468,2.5483,2.5499,2.551,2.5493,2.5561,2.5568,2.5573,2.5595,2.5603,2.5504,2.5504,2.5504,2.5504,0,2.5161,2.5198,2.5226,2.5266,2.5291,2.533,2.5346,2.537,2.5374,2.5387,2.5437,2.5462,2.5501,2.5515,2.5519,2.5575,2.5568,2.5559,2.5538,2.5583,2.5603,2.5612,2.5507,2.5506,2.5506,2.5505,0,0,2.5219,2.5265,2.5276,2.5294,2.5331,2.536,2.5399,2.5437,2.5458,2.5487,2.5521,2.5572,2.5564,2.5586,2.5592,2.5619,2.5667,2.5607,2.5608,2.5618,2.5732,2.5738,2.5747,2.5666,2.5668,2.5669,2.5729,0,2.5273,2.5343,2.5354,2.5415,2.545,2.5451,2.5485,2.5512,2.5527,2.5558,2.5575,2.561,2.5597,2.5611,2.5638,2.5656,2.569,2.5652,2.5698,2.5699,2.5689,2.5758,2.5764,2.582,2.5737,2.5739,2.574,0,2.5345,2.5376,2.5442,2.5475,2.549,2.5521,2.5557,2.5588,2.5618,2.5627,2.5653,2.5656,2.5698,2.5677,2.5735,2.5709,2.5729,2.574,2.5743,2.5747,2.5722,2.5764,2.5838,2.5846,2.5752,2.5751,2.575,0,2.538,2.5439,2.5486,2.5502,2.5542,2.5564,2.5582,2.5611,2.5634,2.5667,2.5682,2.5718,2.5738,2.5767,2.5781,2.5764,2.5839,2.5818,2.5848,2.5848,2.5863,2.5862,2.5941,2.5877,2.5876,2.5876,2.5876,0,2.5439,2.5479,2.5503,2.5532,2.5577,2.559,2.5635,2.5652,2.5679,2.5711,2.5715,2.5745,2.5762,2.5796,2.5807,2.5854,2.5863,2.5872,2.5874,2.5871,2.587,2.5884,2.588,2.5878,2.5878,2.5878,2.5877,0,2.5486,2.5503,2.5555,2.5589,2.5599,2.5631,2.566,2.5689,2.5704,2.5745,2.5756,2.578,2.582,2.5837,2.5886,2.5894,2.5948,2.5948,2.5937,2.5938,2.5967,2.5964,2.6058,2.6071,2.5998,2.5998,2.5999,0,2.5522,2.5553,2.5591,2.5613,2.5632,2.5667,2.5691,2.5706,2.573,2.5769,2.5793,2.5833,2.5866,2.593,2.5952,2.599,2.599,2.6021,2.5996,2.5992,2.5991,2.5989,2.5992,2.6025,2.6025,2.6026,2.6026,0,2.5584,2.5592,2.5626,2.5663,2.5691,2.5721,2.5751,2.5769,2.5789,2.5816,2.5858,2.5883,2.5934,2.5974,2.6014,2.6032,2.6033,2.6034,2.6043,2.604,2.6033,2.6038,2.5949,2.6032,2.6031,2.6031,2.6031,2.603,2.5627,2.5655,2.5686,2.5724,2.5748,2.5776,2.5805,2.5825,2.5859,2.5901,2.5909,2.5953,2.5984,2.6038,2.6059,2.6094,2.6086,2.6099,2.6102,2.6105,2.6107,2.6028,2.6101,2.6101,2.6101,2.6101,2.6101,0,2.5689,2.571,2.5745,2.5787,2.5817,2.5816,2.5849,2.5874,2.5913,2.5943,2.5975,2.6023,2.6063,2.6089,2.6129,2.6152,2.6154,2.6162,2.616,2.6165,2.6111,2.6099,2.6161,2.616,2.616,2.616,2.616,2.616,2.5725,2.5773,2.5785,2.5845,2.5865,2.5909,2.5928,2.5954,2.5978,2.6031,2.6064,2.6081,2.611,2.6153,2.6189,2.6196,2.621,2.6219,2.6226,2.6175,2.6169,2.6163,2.6152,2.6223,2.6223,2.6276,2.6277,2.6277]},{"header":{"parameterUnit":"m.s-1","parameterCategory":1,"la1":30.2991,"la2":30.254,"lo1":-89.0895,"lo2":-89.0444,"dy":0.0017,"dx":0.0017,"nx":28,"ny":28,"refTime":"2024-03-17T09:00:00:Z","depth":0,"parameterNumber":3,"parameterNumberName":"V-component_of_WINDS"},"data":[0,0,0,0,0,0,0,0,0,0,0,0,0,0,0,0,0,0,0,0,0,0,0,0,0,0,0,0,0,0,0,0,0,0,0,0,0,0,0,0,0,0,0,0,0,0,0,0,0,0,0,0,0,0,0,0,0,0,-7.8646,-7.8648,0,-7.8827,-7.8829,-7.8831,-7.8767,-7.8763,-7.8759,-7.8755,-7.8936,-7.8945,-7.8953,0,0,0,0,0,0,0,0,0,0,0,0,0,-7.8239,-7.8247,-7.8645,-7.8648,-7.865,-7.8827,-7.8829,-7.8832,-7.8767,-7.8762,-7.8757,-7.8753,-7.8934,-7.8944,-7.8954,0,0,0,0,0,0,0,0,0,0,0,0,0,-7.8418,-7.825,-7.8645,-7.8639,-7.8641,-7.8826,-7.8829,-7.8832,-7.8768,-7.8762,-7.8756,-7.8751,-7.893,-7.8943,-7.8955,-7.9157,0,0,-7.8995,-7.9001,0,0,0,0,0,0,0,0,-7.8408,-7.8433,-7.8638,-7.864,-7.8642,-7.8768,-7.8753,-7.8941,-7.877,-7.872,-7.8755,-7.8748,-7.8885,-7.8901,-7.8949,-7.9165,-7.9173,-7.8996,-7.9004,-7.9009,-7.9013,0,0,0,0,0,0,0,-7.8395,-7.8424,-7.8717,-7.8641,-7.8643,-7.8626,-7.8645,-7.8788,-7.8834,-7.8724,-7.8719,-7.8742,-7.8885,-7.8936,-7.8952,-7.9176,-7.8996,-7.9007,-7.9015,-7.902,-7.9567,-7.9573,0,0,0,0,0,0,-7.8383,-7.8415,-7.8711,-7.8723,-7.8508,-7.8639,-7.866,-7.8734,-7.8832,-7.8842,-7.8747,-7.8738,-7.8917,-7.8937,-7.8958,-7.9201,-7.9009,-7.9021,-7.9029,-7.956,-7.9568,-7.9576,0,0,0,0,0,0,-7.8374,-7.841,-7.8704,-7.8568,-7.8604,-7.8652,-7.8736,-7.874,-7.8792,-7.885,-7.8857,-7.8791,-7.8913,-7.894,-7.9108,-7.9206,-7.9027,-7.9039,-7.9552,-7.9563,-7.9572,-7.9688,0,0,0,0,0,0,-7.8363,-7.8407,-7.8485,-7.857,-7.8611,-7.8852,-7.8742,-7.8748,-7.8815,-7.8805,-7.8894,-7.8902,-7.8911,-7.9089,-7.9121,-7.9221,-7.9049,-7.9543,-7.9557,-7.9569,-7.9675,-7.9701,-7.9722,0,0,0,0,0,-7.8348,-7.8509,-7.8489,-7.8525,-7.871,-7.8858,-7.8882,-7.8889,-7.8823,-7.8901,-7.8939,-7.89,-7.9191,-7.9107,-7.9142,-7.9248,-7.9537,-7.9553,-7.9568,-7.9665,-7.9696,-7.9722,0,0,0,0,0,0,-7.8432,-7.852,-7.8499,-7.8692,-7.8768,-7.8847,-7.8946,-7.8921,-7.9017,-7.9004,-7.9007,-7.9028,-7.9201,-7.9241,-7.9146,-7.9448,-7.9354,-7.9377,-7.9416,-7.9445,-7.9468,-7.9455,-7.906,0,0,0,0,0,-7.8474,-7.8588,-7.8658,-7.8821,-7.8861,-7.8897,-7.8962,-7.8961,-7.904,-7.9071,-7.9121,-7.9198,-7.9306,-7.9378,-7.9481,-7.9681,-7.9699,-7.977,-7.9794,-7.9813,-7.9833,-7.9941,-7.9974,-7.9626,-7.9626,-7.9625,0,0,-7.856,-7.8622,-7.8693,-7.884,-7.8899,-7.9017,-7.8925,-7.9053,-7.914,-7.909,-7.9253,-7.9292,-7.9378,-7.9563,-7.9647,-7.9601,-7.9933,-7.9832,-7.9847,-7.9857,-7.9961,-7.9994,-8.0023,-7.9636,-7.9634,-7.9632,0,0,-7.8776,-7.8835,-7.8978,-7.904,-7.9131,-7.9154,-7.9189,-7.9272,-7.9297,-7.946,-7.9426,-7.9528,-7.9715,-7.9778,-7.9835,-8.0077,-8.0044,-8.011,-8.0232,-8.0338,-8.0366,-8.039,-8.0477,-8.0508,-8.0129,-8.013,-8.013,0,-7.8871,-7.9049,-7.9054,-7.9186,-7.9252,-7.9214,-7.9359,-7.9418,-7.9538,-7.9583,-7.9531,-7.9766,-7.9821,-8.002,-8.008,-8.0126,-8.0165,-8.01,-8.0362,-8.0386,-8.0409,-8.0492,-8.0524,-8.0137,-8.0136,-8.0135,-8.0135,0,-7.9161,-7.9284,-7.9389,-7.9508,-7.9585,-7.9722,-7.9748,-7.9825,-7.9818,-7.9846,-8.0013,-8.0078,-8.0194,-8.0241,-8.0234,-8.044,-8.041,-8.036,-8.0266,-8.045,-8.0527,-8.0559,-8.0148,-8.0145,-8.0143,-8.0141,0,0,-7.9436,-7.9557,-7.9595,-7.9649,-7.9747,-7.9842,-7.9978,-8.0093,-8.0159,-8.0243,-8.0357,-8.0517,-8.0472,-8.0536,-8.0536,-8.0629,-8.0817,-8.0568,-8.057,-8.0612,-8.1048,-8.1086,-8.1122,-8.0796,-8.0802,-8.0807,-8.1041,0,-7.9661,-7.9901,-7.9911,-8.0129,-8.0243,-8.0209,-8.0327,-8.04,-8.043,-8.053,-8.0562,-8.0676,-8.0608,-8.0647,-8.0738,-8.0775,-8.0905,-8.0758,-8.0901,-8.0906,-8.0882,-8.1163,-8.1203,-8.142,-8.1072,-8.1077,-8.1081,0,-7.9956,-8.0051,-8.0281,-8.0364,-8.0413,-8.0519,-8.0626,-8.0722,-8.0804,-8.0819,-8.0892,-8.0878,-8.1016,-8.0917,-8.1107,-8.1007,-8.1066,-8.1093,-8.1102,-8.1116,-8.1005,-8.1185,-8.149,-8.1523,-8.1128,-8.1125,-8.1121,0,-8.0134,-8.0319,-8.0481,-8.0528,-8.0629,-8.0705,-8.075,-8.0825,-8.0894,-8.0987,-8.1032,-8.1139,-8.1198,-8.128,-8.1296,-8.1222,-8.1486,-8.1388,-8.1502,-8.1502,-8.1559,-8.1556,-8.1879,-8.1597,-8.1597,-8.1596,-8.1595,0,-8.0385,-8.0527,-8.0563,-8.0663,-8.0821,-8.083,-8.0987,-8.1026,-8.1094,-8.12,-8.1176,-8.1276,-8.1291,-8.1394,-8.1406,-8.1562,-8.1588,-8.1604,-8.1606,-8.1607,-8.1605,-8.1645,-8.1631,-8.1605,-8.1603,-8.1601,-8.1599,0,-8.061,-8.064,-8.0815,-8.0897,-8.092,-8.1034,-8.1103,-8.1198,-8.1226,-8.136,-8.1392,-8.1436,-8.1556,-8.158,-8.1721,-8.173,-8.1915,-8.1902,-8.1889,-8.1887,-8.2,-8.1989,-8.2361,-8.241,-8.2096,-8.2099,-8.2101,0,-8.0769,-8.0878,-8.0972,-8.1042,-8.1092,-8.1205,-8.1275,-8.1289,-8.1363,-8.1465,-8.1548,-8.1666,-8.1761,-8.1954,-8.1998,-8.2106,-8.2095,-8.2218,-8.2111,-8.2109,-8.2097,-8.2091,-8.2102,-8.2238,-8.2242,-8.2244,-8.2247,0,-8.1047,-8.1057,-8.116,-8.127,-8.1356,-8.1442,-8.1524,-8.1583,-8.1607,-8.1691,-8.1815,-8.1889,-8.2035,-8.2152,-8.2261,-8.2305,-8.2281,-8.228,-8.2312,-8.2314,-8.2303,-8.2311,-8.1945,-8.2271,-8.2269,-8.2267,-8.2266,-8.2265,-8.1244,-8.134,-8.1422,-8.1538,-8.1602,-8.1679,-8.1773,-8.1813,-8.1917,-8.2038,-8.2039,-8.2175,-8.2253,-8.2396,-8.2448,-8.2553,-8.2515,-8.2561,-8.2573,-8.2584,-8.2595,-8.2286,-8.2573,-8.2572,-8.2572,-8.2571,-8.2571,0,-8.1522,-8.1573,-8.168,-8.1797,-8.1889,-8.1858,-8.1948,-8.2026,-8.2146,-8.2222,-8.2317,-8.2459,-8.2573,-8.2626,-8.2739,-8.2813,-8.2804,-8.2842,-8.2836,-8.2847,-8.2623,-8.2585,-8.2847,-8.2847,-8.2847,-8.2847,-8.2847,-8.2847,-8.1677,-8.1838,-8.1857,-8.2049,-8.2099,-8.2233,-8.2286,-8.2357,-8.2419,-8.2579,-8.2675,-8.2709,-8.2776,-8.2893,-8.2996,-8.3008,-8.3051,-8.3094,-8.3101,-8.2891,-8.2863,-8.2836,-8.28,-8.3103,-8.3104,-8.3317,-8.3319,-8.332]}]]